Location: Munkebjergskolens Observatorium
(55.3864°N, 10.3987°E)
Time: 10:39:43
(UTC+02:00)

JY1SAT - Pass Details

Date: 03 April 2023
Orbit: 555 x 574 km, 97.6° (Epoch: 03 June)

Event Time Altitude Azimuth Distance (km) Brightness Sun altitude
Exits shadow 23:34:58 17° 249° (WSW) 1,444 ? -25.3°
Maximum altitude 23:36:03 19° 270° (W) 1,369 ? -25.3°
Drops below altitude 10° 23:39:00 10° 317° (NW) 1,876 ? -25.5°
Sets 23:41:41 0° 336° (NNW) 2,784 ? -25.7°
